DM4JH-5 Weather Reports


Display with metric or nautical units.
time (UTC)temp
F
wind
direction
speed
MPH
gust
MPH
rain 1hr
in
rain 24hr
in
rain mn
in
humidity
%
barometer
mb
20260507100044 47 43 1.0 4.0 0.02 0.09 0.06 87 1014.2
20260507095043 47 17 1.0 4.0 0.02 0.08 0.05 87 1014.0
20260507094041 47 40 2.0 5.0 0.02 0.08 0.05 87 1014.0
20260507093040 47 47 1.0 4.0 0.03 0.08 0.05 87 1013.9
20260507092038 47 29 1.0 4.0 0.03 0.08 0.05 87 1013.7
20260507091036 47 36 1.0 5.0 0.02 0.07 0.04 87 1013.6
20260507090034 47 37 1.0 3.0 0.03 0.07 0.04 87 1013.5
20260507085033 46 32 0.0 3.0 0.02 0.06 0.03 87 1013.4
20260507084031 46 65 0.0 4.0 0.02 0.06 0.03 87 1013.2
20260507083030 46 24 1.0 3.0 0.01 0.05 0.02 87 1013.2
20260507082028 46 9 1.0 3.0 0.01 0.05 0.02 86 1013.0
20260507081026 46 24 0.0 3.0 0.01 0.05 0.02 86 1012.9
20260507080025 46 40 1.0 4.0 0.00 0.04 0.01 86 1012.8
20260507075023 46 41 1.0 4.0 0.00 0.04 0.01 85 1012.7
20260507074021 46 26 2.0 5.0 0.00 0.04 0.01 85 1012.6
20260507073049 46 35 1.0 5.0 0.00 0.04 0.01 85 1012.5
20260507072048 46 35 1.0 4.0 0.00 0.04 0.01 85 1012.4
20260507071046 46 40 2.0 5.0 0.00 0.04 0.01 85 1012.3
20260507070044 46 26 1.0 3.0 0.00 0.04 0.01 85 1012.2
20260507065042 46 39 2.0 5.0 0.00 0.04 0.01 85 1012.1
20260507064040 46 30 1.0 4.0 0.00 0.04 0.01 85 1011.9
20260507063039 46 38 1.0 4.0 0.00 0.04 0.01 85 1011.8
20260507062037 46 40 1.0 4.0 0.00 0.05 0.01 85 1011.6
20260507061035 46 0 1.0 1.0 0.00 0.06 0.01 85 1011.6
20260507060935 46 68 2.0 3.0 0.00 0.07 0.01 85 1011.4